FALCON 9 DEB (46385 NORAD) Tracking and Keplerian Element Data

This shows tracking and keplerian element data for the satellite.

Feedback or suggestion? Click here.




ElementValue
Catalog46385
NameFALCON 9 DEB
Epoch Orbit473
Epoch Day272.93700416
Epoch Year2020
RAAN298.4006
Inclination52.9901
Eccentricity0.0014548
Argument of Perigee143.0622
Mean Anonmoly217.1429
Mean Motion16.42522047
Decay Rate0.09142894
L11 46385U 20062BN 20272.93700416 .09142894 12241-4 35535-3 0 9994
L22 46385 52.9901 298.4006 0014548 143.0622 217.1429 16.42522047 4736

Live tracking and technical data element details for FALCON 9 DEB (NORAD 46385). FALCON 9 DEB can be tracked NOW for your location showing map with azimuth and elevation plus other details from your city location.

Track the satellite on the map from your city or location and see movement details for azimuth, elevation, latitude, longitude, range, height, and movement on the map or in text.







IsCatalogInMostPopularTable: catalog: 46385, numindb: 21
Update: records affected: 1



GetName: 46385 FALCON 9 DEB

Hit Count: updated at: Tue, 01 Dec 2020 20:50:55 GMT